TimeCDT,TemperatureF,Dew PointF,Humidity,Sea Level PressureIn,VisibilityMPH,Wind Direction,Wind SpeedMPH,Gust SpeedMPH,PrecipitationIn,Events,Conditions,WindDirDegrees,DateUTC
12:15 AM,62.6,48.2,59,30.10,10.0,East,9.2,-,N/A,,Partly Cloudy,90,2013-06-05 05:15:00
12:35 AM,64.4,46.4,52,30.08,10.0,ESE,15.0,-,N/A,,Clear,110,2013-06-05 05:35:00
12:55 AM,64.4,48.2,56,30.09,10.0,East,10.4,-,N/A,,Clear,100,2013-06-05 05:55:00
1:15 AM,62.6,46.4,55,30.09,10.0,ESE,9.2,-,N/A,,Clear,110,2013-06-05 06:15:00
1:35 AM,62.6,46.4,55,30.07,10.0,ESE,15.0,-,N/A,,Clear,110,2013-06-05 06:35:00
1:55 AM,-9999,-9999,N/A,30.07,10.0,ESE,16.1,-,N/A,,Clear,110,2013-06-05 06:55:00
2:15 AM,62.6,46.4,55,30.07,10.0,ESE,12.7,-,N/A,,Clear,110,2013-06-05 07:15:00
2:35 AM,60.8,44.6,55,30.06,10.0,ESE,15.0,-,N/A,,Clear,120,2013-06-05 07:35:00
2:55 AM,60.8,44.6,55,30.08,10.0,ESE,11.5,-,N/A,,Clear,120,2013-06-05 07:55:00
3:15 AM,60.8,44.6,55,30.08,10.0,ESE,10.4,-,N/A,,Clear,120,2013-06-05 08:15:00
3:35 AM,60.8,44.6,55,30.07,10.0,East,9.2,-,N/A,,Clear,100,2013-06-05 08:35:00
3:55 AM,59.0,44.6,59,30.07,10.0,East,6.9,-,N/A,,Clear,100,2013-06-05 08:55:00
4:15 AM,57.2,46.4,67,30.07,10.0,East,6.9,-,N/A,,Clear,100,2013-06-05 09:15:00
4:35 AM,57.2,44.6,63,30.07,10.0,East,6.9,-,N/A,,Clear,80,2013-06-05 09:35:00
4:55 AM,57.2,44.6,63,30.07,10.0,East,6.9,-,N/A,,Clear,80,2013-06-05 09:55:00
5:15 AM,57.2,44.6,63,30.07,10.0,East,6.9,-,N/A,,Clear,90,2013-06-05 10:15:00
5:35 AM,57.2,44.6,63,30.06,10.0,East,9.2,-,N/A,,Clear,100,2013-06-05 10:35:00
5:55 AM,57.2,44.6,63,30.05,10.0,East,10.4,-,N/A,,Partly Cloudy,100,2013-06-05 10:55:00
6:15 AM,57.2,46.4,67,30.06,10.0,ENE,4.6,-,N/A,,Partly Cloudy,70,2013-06-05 11:15:00
6:35 AM,57.2,46.4,67,30.06,10.0,East,6.9,-,N/A,,Clear,90,2013-06-05 11:35:00
6:55 AM,57.2,46.4,67,30.06,10.0,East,4.6,-,N/A,,Clear,80,2013-06-05 11:55:00
7:15 AM,57.2,46.4,67,30.05,10.0,East,6.9,-,N/A,,Clear,80,2013-06-05 12:15:00
7:35 AM,60.8,46.4,59,30.05,6.0,ESE,9.2,-,N/A,,Clear,120,2013-06-05 12:35:00
7:55 AM,60.8,46.4,59,30.04,10.0,ESE,9.2,-,N/A,,Clear,120,2013-06-05 12:55:00
8:15 AM,60.8,48.2,63,30.04,10.0,ESE,9.2,-,N/A,,Clear,110,2013-06-05 13:15:00
8:35 AM,60.8,48.2,63,30.04,10.0,SE,5.8,-,N/A,,Clear,130,2013-06-05 13:35:00
8:55 AM,60.8,48.2,63,30.04,10.0,East,5.8,-,N/A,,Clear,100,2013-06-05 13:55:00
9:15 AM,60.8,48.2,63,30.05,10.0,East,5.8,-,N/A,,Partly Cloudy,100,2013-06-05 14:15:00
9:35 AM,62.6,50.0,63,30.05,10.0,ESE,4.6,-,N/A,,Partly Cloudy,110,2013-06-05 14:35:00
9:55 AM,62.6,50.0,63,30.05,10.0,SE,4.6,-,N/A,,Clear,130,2013-06-05 14:55:00
10:15 AM,64.4,51.8,64,30.04,10.0,SE,6.9,-,N/A,,Clear,130,2013-06-05 15:15:00
10:35 AM,64.4,51.8,64,30.03,10.0,ESE,10.4,-,N/A,,Scattered Clouds,120,2013-06-05 15:35:00
10:55 AM,64.4,51.8,64,30.02,10.0,SE,12.7,-,N/A,,Scattered Clouds,130,2013-06-05 15:55:00
11:15 AM,64.4,51.8,64,30.01,10.0,SE,12.7,-,N/A,,Partly Cloudy,130,2013-06-05 16:15:00
11:35 AM,-9999,-9999,N/A,29.99,10.0,SE,17.3,-,N/A,,Clear,130,2013-06-05 16:35:00
11:55 AM,-9999,-9999,N/A,30.02,10.0,ESE,6.9,-,N/A,,Clear,110,2013-06-05 16:55:00
12:15 PM,-9999,-9999,N/A,30.03,10.0,South,8.1,-,N/A,,Scattered Clouds,170,2013-06-05 17:15:00
12:35 PM,-9999,-9999,N/A,30.03,10.0,SE,8.1,-,0.01,,Scattered Clouds,140,2013-06-05 17:35:00
12:55 PM,-9999,-9999,N/A,30.03,10.0,SE,5.8,-,0.01,,Clear,130,2013-06-05 17:55:00
1:15 PM,-9999,-9999,N/A,30.02,10.0,NE,3.5,-,N/A,,Scattered Clouds,50,2013-06-05 18:15:00
1:35 PM,-9999,-9999,N/A,30.02,10.0,ENE,5.8,-,N/A,,Partly Cloudy,70,2013-06-05 18:35:00
1:55 PM,64.4,51.8,64,30.02,10.0,East,4.6,-,N/A,,Clear,100,2013-06-05 18:55:00
2:15 PM,-9999,-9999,N/A,30.01,10.0,SE,6.9,-,N/A,,Clear,130,2013-06-05 19:15:00
2:35 PM,62.6,53.6,72,30.02,10.0,ESE,4.6,-,0.01,,Partly Cloudy,120,2013-06-05 19:35:00
2:55 PM,-9999,-9999,N/A,30.01,5.0,East,3.5,-,0.03,,Mostly Cloudy,80,2013-06-05 19:55:00
3:15 PM,62.6,53.6,72,30.01,10.0,East,5.8,-,0.01,,Mostly Cloudy,80,2013-06-05 20:15:00
3:35 PM,-9999,-9999,N/A,30.00,7.0,ENE,5.8,-,0.02,,Scattered Clouds,60,2013-06-05 20:35:00
3:55 PM,-9999,-9999,N/A,29.99,8.0,ENE,8.1,-,0.03,,Clear,60,2013-06-05 20:55:00
4:15 PM,-9999,-9999,N/A,29.98,8.0,ENE,10.4,-,N/A,,Clear,60,2013-06-05 21:15:00
4:35 PM,-9999,-9999,N/A,29.97,10.0,ENE,10.4,-,N/A,,Clear,60,2013-06-05 21:35:00
4:55 PM,-9999,-9999,N/A,29.97,10.0,ENE,10.4,-,N/A,,Clear,60,2013-06-05 21:55:00
5:15 PM,-9999,-9999,N/A,29.97,10.0,NE,9.2,-,N/A,,Clear,50,2013-06-05 22:15:00
5:35 PM,-9999,-9999,N/A,29.96,10.0,ENE,10.4,-,N/A,,Clear,70,2013-06-05 22:35:00
5:55 PM,-9999,-9999,N/A,29.95,8.0,ENE,11.5,-,N/A,,Clear,70,2013-06-05 22:55:00
6:15 PM,-9999,-9999,N/A,29.95,8.0,NE,11.5,-,N/A,,Clear,50,2013-06-05 23:15:00
6:35 PM,-9999,-9999,N/A,29.95,7.0,NE,10.4,-,N/A,,Clear,50,2013-06-05 23:35:00
6:55 PM,-9999,-9999,N/A,29.95,5.0,ENE,10.4,-,N/A,,Clear,60,2013-06-05 23:55:00
7:15 PM,-9999,-9999,N/A,29.95,4.0,ENE,10.4,-,N/A,,Partly Cloudy,70,2013-06-06 00:15:00
7:35 PM,60.8,55.4,82,29.97,3.0,ENE,9.2,-,0.01,,Mostly Cloudy,70,2013-06-06 00:35:00
7:55 PM,60.8,55.4,82,29.98,2.5,ESE,6.9,-,0.04,,Partly Cloudy,110,2013-06-06 00:55:00
8:15 PM,60.8,55.4,82,29.97,2.5,ESE,8.1,-,0.04,,Clear,110,2013-06-06 01:15:00
8:35 PM,60.8,55.4,82,29.97,2.5,East,5.8,-,0.08,,Clear,90,2013-06-06 01:35:00
8:55 PM,60.8,55.4,82,29.97,4.0,East,8.1,-,0.10,,Clear,90,2013-06-06 01:55:00
9:15 PM,-9999,-9999,N/A,29.97,5.0,ENE,10.4,-,N/A,,Clear,70,2013-06-06 02:15:00
9:35 PM,59.0,53.6,82,29.97,4.0,East,12.7,-,0.12,,Mostly Cloudy,90,2013-06-06 02:35:00
9:55 PM,-9999,-9999,N/A,29.96,3.0,East,13.8,-,0.22,,Scattered Clouds,80,2013-06-06 02:55:00
10:15 PM,-9999,-9999,N/A,29.96,5.0,East,16.1,21.9,N/A,,Clear,90,2013-06-06 03:15:00
10:35 PM,-9999,-9999,N/A,29.96,7.0,East,12.7,19.6,N/A,,Clear,100,2013-06-06 03:35:00
10:55 PM,-9999,-9999,N/A,29.96,9.0,East,12.7,-,N/A,,Clear,90,2013-06-06 03:55:00
11:15 PM,-9999,-9999,N/A,29.96,10.0,East,10.4,-,N/A,,Clear,100,2013-06-06 04:15:00
11:35 PM,57.2,51.8,82,29.96,10.0,East,11.5,-,N/A,,Clear,100,2013-06-06 04:35:00
11:55 PM,-9999,-9999,N/A,29.95,10.0,East,11.5,-,N/A,,Clear,100,2013-06-06 04:55:00